Lake Apopka Weather Center

Moon Phase Calendar



Lake Apopka Water Level
Online Cameras

 


      

Current Conditions in Montverde
1/24/2021 1:02:27 PM

76°F
Feels Like 82
Clouds
Humidity
75%
Pressure
30.12"
Wind
1 mph (N)
Dew Point
68°F
UV Index
3/10 (Moderate)
Visibility
6 mi

Hourly Forecast

Date & Time Sun, Jan 24
1:00 PM
Sun, Jan 24
2:00 PM
Sun, Jan 24
3:00 PM
Sun, Jan 24
4:00 PM
Sun, Jan 24
5:00 PM
Sun, Jan 24
6:00 PM
Sun, Jan 24
7:00 PM
Sun, Jan 24
8:00 PM
Sun, Jan 24
9:00 PM
Sun, Jan 24
10:00 PM
Sun, Jan 24
11:00 PM
Mon, Jan 25
12:00 AM
Mon, Jan 25
1:00 AM
Mon, Jan 25
2:00 AM
Mon, Jan 25
3:00 AM
Mon, Jan 25
4:00 AM
Mon, Jan 25
5:00 AM
Mon, Jan 25
6:00 AM
Mon, Jan 25
7:00 AM
Mon, Jan 25
8:00 AM
Mon, Jan 25
9:00 AM
Mon, Jan 25
10:00 AM
Mon, Jan 25
11:00 AM
Mon, Jan 25
12:00 PM
Mon, Jan 25
1:00 PM
Mon, Jan 25
2:00 PM
Mon, Jan 25
3:00 PM
Mon, Jan 25
4:00 PM
Mon, Jan 25
5:00 PM
Mon, Jan 25
6:00 PM
Mon, Jan 25
7:00 PM
Mon, Jan 25
8:00 PM
Mon, Jan 25
9:00 PM
Mon, Jan 25
10:00 PM
Mon, Jan 25
11:00 PM
Tue, Jan 26
12:00 AM
Tue, Jan 26
1:00 AM
Tue, Jan 26
2:00 AM
Tue, Jan 26
3:00 AM
Tue, Jan 26
4:00 AM
Tue, Jan 26
5:00 AM
Tue, Jan 26
6:00 AM
Tue, Jan 26
7:00 AM
Tue, Jan 26
8:00 AM
Tue, Jan 26
9:00 AM
Tue, Jan 26
10:00 AM
Tue, Jan 26
11:00 AM
Tue, Jan 26
12:00 PM
Condition
Clouds

Clouds

Clouds

Clouds

Clouds

Clouds

Clouds

Clouds

Clouds

Clouds

Clouds

Clouds

Clouds

Clouds

Clouds

Clouds

Clouds

Clouds

Clouds

Clouds

Clouds

Clouds

Clouds

Clouds

Clouds

Clouds

Clouds

Clouds

Clouds

Clouds

Clouds

Clouds

Clouds

Clouds

Clouds

Clouds

Clouds

Clouds

Clouds

Clouds

Clouds

Clouds

Clouds

Clouds

Clouds

Clouds

Clouds

Clouds
Temperature 76°F76°F76°F75°F73°F71°F70°F69°F68°F67°F66°F66°F65°F65°F65°F64°F64°F64°F65°F65°F70°F73°F76°F78°F79°F79°F78°F78°F77°F75°F73°F72°F71°F70°F69°F68°F68°F67°F66°F66°F65°F65°F64°F65°F69°F72°F76°F78°F
Feels Like 80°F78°F77°F75°F73°F71°F69°F68°F67°F67°F67°F66°F67°F66°F66°F66°F66°F66°F66°F67°F69°F72°F74°F75°F76°F76°F77°F77°F77°F76°F75°F74°F73°F71°F70°F69°F68°F67°F67°F66°F66°F66°F66°F67°F69°F72°F75°F78°F
Cloudiness 85%75%80%85%85%88%90%100%99%99%100%98%98%100%82%72%78%79%81%95%79%72%69%74%77%94%97%98%98%94%92%100%100%100%100%100%100%100%100%100%100%100%100%100%100%100%85%69%
Visibility 6 mi6 mi6 mi6 mi6 mi6 mi6 mi6 mi6 mi6 mi6 mi6 mi6 mi6 mi6 mi6 mi6 mi6 mi6 mi6 mi6 mi6 mi6 mi6 mi6 mi6 mi6 mi6 mi6 mi6 mi6 mi6 mi6 mi6 mi6 mi6 mi6 mi6 mi6 mi6 mi6 mi6 mi6 mi6 mi6 mi6 mi6 mi6 mi
Precipitation 28%27%23%21%17%7%0%0%0%0%0%0%0%1%1%1%5%3%1%0%1%0%5%5%7%9%9%9%7%7%6%0%0%0%0%0%0%0%0%0%0%0%0%0%0%0%0%0%
Humidity 75%67%63%65%70%76%79%81%85%88%90%92%93%94%95%96%96%96%96%96%84%76%70%65%60%60%60%61%63%69%73%76%79%81%82%82%83%84%87%90%93%93%94%93%84%74%66%58%
Dew Point 68°F64°F62°F62°F63°F63°F63°F63°F63°F63°F63°F64°F64°F64°F63°F63°F64°F63°F64°F64°F65°F65°F66°F65°F64°F64°F64°F64°F64°F64°F64°F64°F64°F64°F63°F63°F62°F62°F63°F63°F63°F63°F63°F63°F64°F64°F63°F62°F
Pressure 30.12"30.12"30.09"30.09"30.09"30.09"30.12"30.12"30.12"30.12"30.12"30.09"30.09"30.09"30.06"30.06"30.06"30.06"30.06"30.06"30.06"30.06"30.06"30.06"30.03"30"29.97"29.97"29.97"30"30"30.03"30.03"30.03"30.03"30.03"30.03"30"30"29.97"30"30"30.03"30.03"30.06"30.06"30.06"30.06"
Wind Speed 4.4 mph4.8 mph5.8 mph7 mph8 mph7.8 mph8.2 mph9 mph8.6 mph7.9 mph7.2 mph7.3 mph6.2 mph5.8 mph5.1 mph4.9 mph5.2 mph4.8 mph5.5 mph6.2 mph10.1 mph11.2 mph13 mph13.6 mph13.2 mph12.5 mph11.4 mph11.1 mph8.7 mph6.8 mph5.7 mph5.2 mph4.2 mph5.1 mph4.8 mph6.4 mph7 mph7.1 mph6.7 mph6.3 mph5.5 mph4.8 mph4.9 mph5.3 mph7.5 mph8.7 mph9 mph9 mph
Wind
Direction
77°
ENE
73°
ENE
72°
ENE
84°
E
91°
E
95°
E
93°
E
102°
ESE
112°
ESE
117°
ESE
121°
ESE
127°
SE
125°
SE
121°
ESE
122°
ESE
119°
ESE
122°
ESE
136°
SE
142°
SE
142°
SE
151°
SSE
160°
SSE
169°
S
178°
S
184°
S
188°
S
183°
S
187°
S
181°
S
186°
S
193°
SSW
210°
SSW
220°
SW
231°
SW
224°
SW
199°
SSW
200°
SSW
198°
SSW
196°
SSW
194°
SSW
204°
SSW
206°
SSW
205°
SSW
207°
SSW
205°
SSW
208°
SSW
212°
SSW
223°
SW

Daily Forecast

Date High Low Precip. Humidity
Today
Jan 24

Rain
76 °F
61 °F
34%
70%
Monday
Jan 25

Clouds
79 °F
65 °F
13%
71%
Tuesday
Jan 26

Clouds
82 °F
64 °F
0%
50%
Wednesday
Jan 27

Clouds
82 °F
65 °F
0%
55%
Thursday
Jan 28

Rain
71 °F
53 °F
28%
38%
Friday
Jan 29

Clear
61 °F
46 °F
0%
43%
Saturday
Jan 30

Clear
69 °F
48 °F
0%
39%
Sunday
Jan 31

Clouds
74 °F
55 °F
0%
49%
Monday
Feb 1

Rain
77 °F
63 °F
56%
55%
Tuesday
Feb 2

Clear
76 °F
58 °F
3%
45%
Wednesday
Feb 3

Clear
79 °F
60 °F
0%
45%
Thursday
Feb 4

Clear
81 °F
61 °F
0%
45%
Friday
Feb 5

Clear
82 °F
61 °F
0%
43%
Saturday
Feb 6

Rain
86 °F
67 °F
20%
52%
Sunday
Feb 7

Rain
86 °F
69 °F
20%
49%
Monday
Feb 8

Clouds
86 °F
67 °F
0%
46%


Temperature 8-14 Day Outlook



Precipitation 8-14 Day Outlook




Quick Links
Lake Apopka News
Lake Apopka Photos
Lake Apopka Videos




About Us
Contact Us
Site Map
Search Site
Advertise With Us
   
Apopka.USLakes.info
THE LAKE APOPKA WEBSITE

Copyright 2021, Lakes Online
Privacy    |    Legal